Time,TemperatureF,DewpointF,PressureIn,WindDirection,WindDirectionDegrees,WindSpeedMPH,WindSpeedGustMPH,Humidity,HourlyPrecipIn,Conditions,Clouds,dailyrainin,SoftwareType,DateUTC
2013-02-25 00:00:00,18.8,14.0,30.10,WSW,253,2.0,3.0,82,0.00,,,0.00,weatherlink.com 1.10,2013-02-25 07:00:00,
2013-02-25 00:16:00,17.9,14.0,30.10,WSW,252,1.0,2.0,83,0.00,,,0.00,weatherlink.com 1.10,2013-02-25 07:16:00,
2013-02-25 00:31:00,16.9,13.0,30.10,WSW,257,1.0,3.0,85,0.00,,,0.00,weatherlink.com 1.10,2013-02-25 07:31:00,
2013-02-25 00:46:00,15.9,12.0,30.10,WSW,257,2.0,4.0,85,0.00,,,0.00,weatherlink.com 1.10,2013-02-25 07:46:00,
2013-02-25 01:01:00,14.7,11.0,30.10,West,274,2.0,3.0,85,0.00,,,0.00,weatherlink.com 1.10,2013-02-25 08:01:00,
2013-02-25 01:16:00,14.1,11.0,30.11,WSW,249,1.0,2.0,86,0.00,,,0.00,weatherlink.com 1.10,2013-02-25 08:16:00,
2013-02-25 01:31:00,13.5,10.0,30.11,WSW,248,0.0,2.0,87,0.00,,,0.00,weatherlink.com 1.10,2013-02-25 08:31:00,
2013-02-25 01:46:00,13.3,10.0,30.11,West,262,0.0,1.0,88,0.00,,,0.00,weatherlink.com 1.10,2013-02-25 08:46:00,
2013-02-25 02:01:00,12.7,10.0,30.11,WSW,248,0.0,1.0,88,0.00,,,0.00,weatherlink.com 1.10,2013-02-25 09:01:00,
2013-02-25 02:16:00,12.2,10.0,30.11,WSW,243,0.0,2.0,89,0.00,,,0.00,weatherlink.com 1.10,2013-02-25 09:16:00,
2013-02-25 02:31:00,11.9,9.0,30.11,WSW,250,0.0,1.0,89,0.00,,,0.00,weatherlink.com 1.10,2013-02-25 09:31:00,
2013-02-25 02:46:00,11.9,10.0,30.11,WSW,238,1.0,1.0,90,0.00,,,0.00,weatherlink.com 1.10,2013-02-25 09:46:00,
2013-02-25 03:01:00,11.3,9.0,30.10,WSW,245,1.0,2.0,89,0.00,,,0.00,weatherlink.com 1.10,2013-02-25 10:01:00,
2013-02-25 03:16:00,11.0,8.0,30.10,West,269,0.0,1.0,89,0.00,,,0.00,weatherlink.com 1.10,2013-02-25 10:16:00,
2013-02-25 03:31:00,10.6,8.0,30.11,West,266,0.0,1.0,89,0.00,,,0.00,weatherlink.com 1.10,2013-02-25 10:31:00,
2013-02-25 03:46:00,7.0,5.0,30.11,West,262,0.0,0.0,89,0.00,,,0.00,weatherlink.com 1.10,2013-02-25 10:46:00,
2013-02-25 04:01:00,-999.0,-99.9,30.10,North,-999,-999.0,-999.0,-999,0.00,,,0.00,weatherlink.com 1.10,2013-02-25 11:01:00,
2013-02-25 04:16:00,-999.0,-99.9,30.10,North,-999,-999.0,-999.0,-999,0.00,,,0.00,weatherlink.com 1.10,2013-02-25 11:16:00,
2013-02-25 04:31:00,-999.0,-99.9,30.10,North,-999,-999.0,-999.0,-999,0.00,,,0.00,weatherlink.com 1.10,2013-02-25 11:31:00,
2013-02-25 04:46:00,-999.0,-99.9,30.11,North,-999,-999.0,-999.0,-999,0.00,,,0.00,weatherlink.com 1.10,2013-02-25 11:46:00,
2013-02-25 05:01:00,-999.0,-99.9,30.10,North,-999,-999.0,-999.0,-999,0.00,,,0.00,weatherlink.com 1.10,2013-02-25 12:01:00,
2013-02-25 05:17:00,-999.0,-99.9,30.10,North,-999,-999.0,-999.0,-999,0.00,,,0.00,weatherlink.com 1.10,2013-02-25 12:17:00,
2013-02-25 05:32:00,-999.0,-99.9,30.09,North,-999,-999.0,-999.0,-999,0.00,,,0.00,weatherlink.com 1.10,2013-02-25 12:32:00,
2013-02-25 06:02:00,-999.0,-99.9,30.09,North,-999,-999.0,-999.0,-999,0.00,,,0.00,weatherlink.com 1.10,2013-02-25 13:02:00,
2013-02-25 06:17:00,-999.0,-99.9,30.08,North,-999,-999.0,-999.0,-999,0.00,,,0.00,weatherlink.com 1.10,2013-02-25 13:17:00,
2013-02-25 06:32:00,-999.0,-99.9,30.08,North,-999,-999.0,-999.0,-999,0.00,,,0.00,weatherlink.com 1.10,2013-02-25 13:32:00,
2013-02-25 06:47:00,-999.0,-99.9,30.07,North,-999,-999.0,-999.0,-999,0.00,,,0.00,weatherlink.com 1.10,2013-02-25 13:47:00,
2013-02-25 07:02:00,-999.0,-99.9,30.07,North,-999,-999.0,-999.0,-999,0.00,,,0.00,weatherlink.com 1.10,2013-02-25 14:02:00,
2013-02-25 07:17:00,7.5,4.0,30.08,West,264,2.0,4.0,87,0.00,,,0.00,weatherlink.com 1.10,2013-02-25 14:17:00,
2013-02-25 07:32:00,8.7,6.0,30.08,WSW,249,3.0,5.0,87,0.00,,,0.00,weatherlink.com 1.10,2013-02-25 14:32:00,
2013-02-25 07:47:00,9.7,6.0,30.07,WSW,257,2.0,5.0,86,0.00,,,0.00,weatherlink.com 1.10,2013-02-25 14:47:00,
2013-02-25 08:02:00,11.2,8.0,30.07,WSW,246,1.0,3.0,86,0.00,,,0.00,weatherlink.com 1.10,2013-02-25 15:02:00,
2013-02-25 08:17:00,12.6,9.0,30.08,West,269,1.0,2.0,85,0.00,,,0.00,weatherlink.com 1.10,2013-02-25 15:17:00,
2013-02-25 08:32:00,14.3,10.0,30.09,WSW,240,1.0,3.0,84,0.00,,,0.00,weatherlink.com 1.10,2013-02-25 15:32:00,
2013-02-25 08:47:00,16.2,13.0,30.08,WNW,295,2.0,3.0,85,0.00,,,0.00,weatherlink.com 1.10,2013-02-25 15:47:00,
2013-02-25 09:02:00,17.8,13.0,30.08,SW,236,2.0,4.0,80,0.00,,,0.00,weatherlink.com 1.10,2013-02-25 16:02:00,
2013-02-25 09:17:00,19.5,13.0,30.08,WSW,245,0.0,3.0,75,0.00,,,0.00,weatherlink.com 1.10,2013-02-25 16:17:00,
2013-02-25 09:32:00,21.4,13.0,30.07,WNW,296,1.0,3.0,71,0.00,,,0.00,weatherlink.com 1.10,2013-02-25 16:32:00,
2013-02-25 09:47:00,23.7,15.0,30.07,NW,316,0.0,2.0,69,0.00,,,0.00,weatherlink.com 1.10,2013-02-25 16:47:00,
2013-02-25 10:02:00,28.6,15.0,30.07,NNE,23,2.0,2.0,58,0.00,,,0.00,weatherlink.com 1.10,2013-02-25 17:02:00,
2013-02-25 10:18:00,30.7,17.0,30.07,SSE,165,0.0,1.0,56,0.00,,,0.00,weatherlink.com 1.10,2013-02-25 17:18:00,
2013-02-25 10:33:00,32.2,18.0,30.06,ESE,117,0.0,2.0,56,0.00,,,0.00,weatherlink.com 1.10,2013-02-25 17:33:00,
2013-02-25 10:48:00,33.7,18.0,30.06,SSE,167,1.0,4.0,54,0.00,,,0.00,weatherlink.com 1.10,2013-02-25 17:48:00,
2013-02-25 11:03:00,34.5,18.0,30.05,SE,127,1.0,3.0,52,0.00,,,0.00,weatherlink.com 1.10,2013-02-25 18:03:00,
2013-02-25 11:18:00,34.9,20.0,30.05,WNW,299,3.0,5.0,54,0.00,,,0.00,weatherlink.com 1.10,2013-02-25 18:18:00,
2013-02-25 11:33:00,35.6,20.0,30.04,SSE,160,1.0,4.0,54,0.00,,,0.00,weatherlink.com 1.10,2013-02-25 18:33:00,
2013-02-25 11:48:00,36.7,21.0,30.03,SSE,162,1.0,5.0,54,0.00,,,0.00,weatherlink.com 1.10,2013-02-25 18:48:00,
2013-02-25 12:03:00,37.0,21.0,30.02,South,170,1.0,3.0,52,0.00,,,0.00,weatherlink.com 1.10,2013-02-25 19:03:00,
2013-02-25 12:18:00,37.5,20.0,30.01,NW,314,0.0,3.0,50,0.00,,,0.00,weatherlink.com 1.10,2013-02-25 19:18:00,
2013-02-25 12:33:00,40.0,21.0,30.00,SSW,200,3.0,3.0,47,0.00,,,0.00,weatherlink.com 1.10,2013-02-25 19:33:00,
2013-02-25 12:48:00,40.4,20.0,29.98,SSW,213,1.0,4.0,44,0.00,,,0.00,weatherlink.com 1.10,2013-02-25 19:48:00,
2013-02-25 13:03:00,40.8,20.0,29.97,WNW,284,0.0,4.0,44,0.00,,,0.00,weatherlink.com 1.10,2013-02-25 20:03:00,
2013-02-25 13:18:00,40.0,20.0,29.96,WNW,288,0.0,4.0,44,0.00,,,0.00,weatherlink.com 1.10,2013-02-25 20:18:00,
2013-02-25 13:33:00,43.7,22.0,29.95,SSE,164,1.0,4.0,42,0.00,,,0.00,weatherlink.com 1.10,2013-02-25 20:33:00,
2013-02-25 13:48:00,41.9,20.0,29.94,South,176,1.0,6.0,41,0.00,,,0.00,weatherlink.com 1.10,2013-02-25 20:48:00,
2013-02-25 14:03:00,43.5,19.0,29.93,SSE,165,0.0,4.0,38,0.00,,,0.00,weatherlink.com 1.10,2013-02-25 21:03:00,
2013-02-25 14:18:00,45.9,18.0,29.93,ESE,114,1.0,3.0,33,0.00,,,0.00,weatherlink.com 1.10,2013-02-25 21:18:00,
2013-02-25 14:33:00,46.0,22.0,29.92,SSE,166,1.0,5.0,39,0.00,,,0.00,weatherlink.com 1.10,2013-02-25 21:33:00,
2013-02-25 14:48:00,45.6,22.0,29.91,ESE,109,3.0,8.0,40,0.00,,,0.00,weatherlink.com 1.10,2013-02-25 21:48:00,
2013-02-25 15:03:00,45.1,22.0,29.90,SW,221,3.0,7.0,40,0.00,,,0.00,weatherlink.com 1.10,2013-02-25 22:03:00,
2013-02-25 15:18:00,45.4,21.0,29.90,South,177,4.0,9.0,38,0.00,,,0.00,weatherlink.com 1.10,2013-02-25 22:18:00,
2013-02-25 15:33:00,43.3,14.0,29.89,WSW,246,6.0,6.0,31,0.00,,,0.00,weatherlink.com 1.10,2013-02-25 22:33:00,
2013-02-25 15:49:00,43.6,17.0,29.89,SSW,193,3.0,5.0,34,0.00,,,0.00,weatherlink.com 1.10,2013-02-25 22:49:00,
2013-02-25 16:04:00,45.7,21.0,29.89,SSE,159,1.0,6.0,37,0.00,,,0.00,weatherlink.com 1.10,2013-02-25 23:04:00,
2013-02-25 16:19:00,44.6,21.0,29.88,South,177,1.0,8.0,40,0.00,,,0.00,weatherlink.com 1.10,2013-02-25 23:19:00,
2013-02-25 16:34:00,44.1,20.0,29.87,SSE,148,1.0,6.0,39,0.00,,,0.00,weatherlink.com 1.10,2013-02-25 23:34:00,
2013-02-25 16:49:00,44.2,20.0,29.86,SSE,159,2.0,4.0,39,0.00,,,0.00,weatherlink.com 1.10,2013-02-25 23:49:00,
2013-02-25 17:04:00,43.1,21.0,29.86,SSE,165,2.0,4.0,41,0.00,,,0.00,weatherlink.com 1.10,2013-02-26 00:04:00,
2013-02-25 17:19:00,42.5,20.0,29.86,SSW,195,0.0,3.0,41,0.00,,,0.00,weatherlink.com 1.10,2013-02-26 00:19:00,
2013-02-25 17:34:00,37.6,20.0,29.86,SE,140,1.0,3.0,50,0.00,,,0.00,weatherlink.com 1.10,2013-02-26 00:34:00,
2013-02-25 17:49:00,33.6,20.0,29.85,North,352,0.0,4.0,57,0.00,,,0.00,weatherlink.com 1.10,2013-02-26 00:49:00,
2013-02-25 18:04:00,31.0,20.0,29.85,ESE,105,2.0,5.0,63,0.00,,,0.00,weatherlink.com 1.10,2013-02-26 01:04:00,
2013-02-25 18:19:00,29.3,20.0,29.85,South,169,1.0,4.0,68,0.00,,,0.00,weatherlink.com 1.10,2013-02-26 01:19:00,
2013-02-25 18:34:00,28.2,20.0,29.86,SSE,158,1.0,-999.0,71,-99.99,,,0.00,weatherlink.com 1.10,2013-02-26 01:34:00,
2013-02-25 18:49:00,27.1,20.0,29.86,SE,145,1.0,3.0,73,0.00,,,0.00,weatherlink.com 1.10,2013-02-26 01:49:00,
2013-02-25 19:04:00,25.8,19.0,29.86,SW,222,1.0,2.0,75,0.00,,,0.00,weatherlink.com 1.10,2013-02-26 02:04:00,
2013-02-25 19:19:00,25.2,19.0,29.86,North,6,0.0,2.0,77,0.00,,,0.00,weatherlink.com 1.10,2013-02-26 02:19:00,
2013-02-25 19:34:00,24.6,19.0,29.85,NNW,340,1.0,3.0,78,0.00,,,0.00,weatherlink.com 1.10,2013-02-26 02:34:00,
2013-02-25 19:49:00,24.0,18.0,29.85,ENE,63,0.0,3.0,77,0.00,,,0.00,weatherlink.com 1.10,2013-02-26 02:49:00,
2013-02-25 20:04:00,23.2,17.0,29.85,SSE,162,0.0,2.0,78,0.00,,,0.00,weatherlink.com 1.10,2013-02-26 03:04:00,
2013-02-25 20:19:00,22.5,17.0,29.85,WNW,288,0.0,4.0,80,0.00,,,0.00,weatherlink.com 1.10,2013-02-26 03:19:00,
2013-02-25 20:34:00,22.0,17.0,29.85,ESE,115,1.0,4.0,81,0.00,,,0.00,weatherlink.com 1.10,2013-02-26 03:34:00,
2013-02-25 20:49:00,21.2,16.0,29.85,NNE,26,1.0,5.0,81,0.00,,,0.00,weatherlink.com 1.10,2013-02-26 03:49:00,
2013-02-25 21:04:00,20.6,16.0,29.85,SE,141,0.0,5.0,82,0.00,,,0.00,weatherlink.com 1.10,2013-02-26 04:04:00,
2013-02-25 21:19:00,19.8,15.0,29.85,NW,314,1.0,4.0,82,0.00,,,0.00,weatherlink.com 1.10,2013-02-26 04:19:00,
2013-02-25 21:34:00,19.4,15.0,29.85,SE,134,1.0,4.0,83,0.00,,,0.00,weatherlink.com 1.10,2013-02-26 04:34:00,
2013-02-25 21:49:00,18.7,14.0,29.85,SSW,200,0.0,5.0,83,0.00,,,0.00,weatherlink.com 1.10,2013-02-26 04:49:00,
2013-02-25 22:04:00,18.2,14.0,29.85,South,169,0.0,4.0,83,0.00,,,0.00,weatherlink.com 1.10,2013-02-26 05:04:00,
2013-02-25 22:19:00,17.9,14.0,29.84,SSE,148,0.0,2.0,83,0.00,,,0.00,weatherlink.com 1.10,2013-02-26 05:19:00,
2013-02-25 22:34:00,17.8,14.0,29.85,SE,124,0.0,2.0,83,0.00,,,0.00,weatherlink.com 1.10,2013-02-26 05:34:00,
2013-02-25 22:49:00,17.7,13.0,29.84,ESE,107,0.0,3.0,83,0.00,,,0.00,weatherlink.com 1.10,2013-02-26 05:49:00,
2013-02-25 23:04:00,17.3,13.0,29.84,SE,124,2.0,2.0,82,0.00,,,0.00,weatherlink.com 1.10,2013-02-26 06:04:00,
2013-02-25 23:19:00,17.3,13.0,29.84,WNW,294,1.0,3.0,82,0.00,,,0.00,weatherlink.com 1.10,2013-02-26 06:19:00,
2013-02-25 23:49:00,16.6,12.0,29.84,ENE,77,0.0,2.0,82,0.00,,,0.00,weatherlink.com 1.10,2013-02-26 06:49:00,